This is the latest recevied weather packets stored in our database for station/object WE1C. If no packets are shown the sender has not sent any weather packets the latest 10 day(s).
| Time | Temp. | Humidity | Pressure | Rain* | Wind** | Luminosity | Snow |
|---|---|---|---|---|---|---|---|
| 1788546891 | 26.11° C | 58% | 1038.4 hPa | 0 mm | - | 660 W/m² | - |
| 1788546586 | 26.11° C | 63% | 1038.3 hPa | 0 mm | - | 645 W/m² | - |
| 1788546281 | 26.11° C | 62% | 1038.1 hPa | 0 mm | - | 129 W/m² | - |
| 1788545976 | 26.67° C | 55% | 1038.2 hPa | 0 mm | - | 655 W/m² | - |
| 1788545671 | 26.67° C | 58% | 1038.4 hPa | 0 mm | - | 636 W/m² | - |
| 1788545366 | 26.11° C | 59% | 1038.3 hPa | 0 mm | - | 658 W/m² | - |
| 1788545061 | 25.56° C | 62% | 1038.3 hPa | 0 mm | - | 703 W/m² | - |
| 1788544761 | 25.56° C | 61% | 1038.2 hPa | 0 mm | - | 616 W/m² | - |
| 1788544460 | 25° C | 63% | 1038.3 hPa | 0 mm | - | 212 W/m² | - |
| 1788544154 | 25.56° C | 65% | 1038.3 hPa | 0 mm | - | 315 W/m² | - |
| 1788543849 | 25.56° C | 59% | 1038.2 hPa | 0 mm | - | 489 W/m² | - |
| 1788543546 | 25.56° C | 56% | 1038.1 hPa | 0 mm | - | 148 W/m² | - |
| 1788543241 | 26.67° C | 56% | 1038.4 hPa | 0 mm | - | 197 W/m² | - |
| 1788542942 | 26.67° C | 57% | 1038.3 hPa | 0 mm | - | 726 W/m² | - |
| 1788542636 | 26.11° C | 57% | 1038.3 hPa | 0 mm | - | 727 W/m² | - |
| 1788542331 | 26.11° C | 68% | 1038.3 hPa | 0 mm | - | 724 W/m² | - |
| 1788542026 | 26.11° C | 60% | 1038.2 hPa | 0 mm | - | 699 W/m² | - |
| 1788541722 | 25.56° C | 62% | 1038.4 hPa | 0 mm | - | 703 W/m² | - |
| 1788541418 | 25.56° C | 62% | 1038.5 hPa | 0 mm | - | 696 W/m² | - |
| 1788541113 | 25.56° C | 65% | 1038.5 hPa | 0 mm | - | 695 W/m² | - |
| 1788540811 | 25.56° C | 60% | 1038.8 hPa | 0 mm | - | 699 W/m² | - |
| 1788540507 | 25.56° C | 64% | 1038.8 hPa | 0 mm | - | 702 W/m² | - |
| 1788540201 | 25.56° C | 67% | 1038.8 hPa | 0 mm | - | 718 W/m² | - |
| 1788539897 | 25.56° C | 60% | 1038.8 hPa | 0 mm | - | 736 W/m² | - |
| 1788539592 | 25° C | 68% | 1038.7 hPa | 0 mm | - | 735 W/m² | - |
* Rain latest hour (hover to see other rain measurements)
** Current wind speed in m/s (hover to see current wind gust speed)